Location: N�rnberg
(49.4471°N, 11.0632°E)
Time: 16:40:53
(UTC+01:00)

ARIANE 6 FM1 Upper Stage - Pass Details

Date: 17 February 2026
Orbit: 523 x 607 km, 62.0° (Epoch: 7 March)

Event Time Altitude Azimuth Distance (km) Brightness Sun altitude
Rises 18:37:08 0° 315° (NW) 2,662 6.7 -10.1°
Reaches altitude 10° 18:39:20 10° 318° (NW) 1,769 5.7 -10.5°
Maximum altitude 18:43:17 69° 42° (NE) 564 2.5 -11.1°
Drops below altitude 10° 18:47:14 10° 127° (SE) 1,770 4.8 -11.8°
Enters shadow 18:47:15 10° 127° (SE) 1,773 4.8 -11.8°
